sat.trackr.live / text

‹ back to catalog

QIANFAN-84

NORAD 63170 · 2025-046M

PAYLOAD ACTIVE UNKNOWN

§ Identity

Operator
Country
PRC
Launch date
2025-03-11
Launch site
WSC
Launch vehicle
Mass (kg)
RCS (m²)

External: N2YO · Heavens-Above · Gunter

§ Orbital elements

Epoch: 2026-09-22T21:06:25.682688Z

Period
106.59 min
Inclination
88.9639°
Eccentricity
0.0016505
Mean motion
13.51016513 rev/d
Perigee alt
1,056.2 km
Apogee alt
1,080.8 km
Semi-major
7,446.7 km
B*
-1.0684e-4
RAAN
290.5462°
Arg perigee
31.1172°
Mean anomaly
329.0953°
Rev number
8,576

§ Raw data

QIANFAN-841 63170U 25046M   26265.87946392 -.00000057  00000+0 -10684-3 0  99982 63170  88.9639 290.5462 0016505  31.1172 329.0953 13.51016513 85765

JSON: /api/v1/satellites/63170 · /tle

For live sub-satellite position, see the globe view (requires WebGL).

§ Visibility from observer

Set your observer location to see the next 7 days of passes ≥ 10°. The values pass through the URL so the page stays shareable.

No JS? Fill the form by hand. The geolocation button needs JavaScript.